Weather History for Chino, CA

Change the Weather History Date:

Saturday, August 17, 2013

  Actual Average Record
Temperature  
Mean Temperature 80 °F -  
Max Temperature 99 °F 90 °F 102 °F (2012)
Min Temperature 62 °F 58 °F 55 °F (2005)
Cooling Degree Days 15    
Growing Degree Days 30 (Base 50)    
Moisture  
Dew Point 55 °F    
Average Humidity 49    
Maximum Humidity 78    
Minimum Humidity 20    
Precipitation  
Precipitation 0.00 in - - ()
Sea Level Pressure  
Sea Level Pressure 29.88 in    
Wind  
Wind Speed 4 mph (WSW)    
Max Wind Speed 16 mph    
Max Gust Speed -    
Visibility 9 miles    
Events      
Averages and records for this station are not official NWS values.
T = Trace of Precipitation, MM = Missing Value Source: NWS Daily Summary

Daily Weather History Graph

Daily Weather History Graph

Search for Another Location

Airport:

Trip Planner

Search our weather history database for the weather conditions in past years. The results will help you decide how hot, cold, wet, or windy it might be!

Date:

Astronomy

Aug. 17, 2013 Rise Set
Actual Time 6:13 AM PDT 7:34 PM PDT
Civil Twilight 5:47 AM PDT 8:00 PM PDT
Nautical Twilight 5:16 AM PDT 8:32 PM PDT
Astronomical Twilight 4:43 AM PDT 9:04 PM PDT
Moon 4:49 PM PDT (8/17) 2:27 AM PDT (8/17)
Length of Visible Light 14h 13m
Length of Day
13h 20m
Waxing Gibbous, 85% of the Moon is Illuminated
Aug 17
Waxing Gibbous
Aug 20
Full
Aug 28
Last Quarter
Sep 5
New
Sep 12
First Quarter

Hourly Weather History & Observations

Time (PDT) Temp. Heat Index Dew Point Humidity Pressure Visibility Wind Dir Wind Speed Gust Speed Precip Events Conditions
12:53 AM 69.1 °F - 57.0 °F 65% 29.94 in 8.0 mi Calm Calm - N/A   Clear
1:53 AM 66.9 °F - 57.0 °F 70% 29.94 in 7.0 mi Calm Calm - N/A   Clear
2:53 AM 64.9 °F - 55.0 °F 70% 29.93 in 8.0 mi Calm Calm - N/A   Clear
3:53 AM 64.9 °F - 55.0 °F 70% 29.93 in 8.0 mi East 3.5 mph - N/A   Clear
4:53 AM 64.0 °F - 55.0 °F 73% 29.92 in 8.0 mi SE 3.5 mph - N/A   Clear
5:53 AM 62.1 °F - 55.0 °F 78% 29.93 in 8.0 mi Calm Calm - N/A   Clear
6:53 AM 63.0 °F - 55.9 °F 78% 29.94 in 10.0 mi Calm Calm - N/A   Clear
7:53 AM 71.1 °F - 57.0 °F 61% 29.94 in 10.0 mi West 3.5 mph - N/A   Clear
8:53 AM 75.9 °F - 57.0 °F 52% 29.95 in 10.0 mi SE 3.5 mph - N/A   Clear
9:53 AM 81.0 °F 80.4 °F 53.1 °F 38% 29.94 in 10.0 mi Calm Calm - N/A   Clear
10:53 AM 87.1 °F - 51.1 °F 29% 29.93 in 10.0 mi Calm Calm - N/A   Clear
11:53 AM 93.0 °F - 51.1 °F 24% 29.90 in 10.0 mi Calm Calm - N/A   Clear
12:53 PM 98.1 °F 96.1 °F 54.0 °F 23% 29.87 in 10.0 mi West 11.5 mph - N/A   Partly Cloudy
1:53 PM 98.1 °F - 51.1 °F 20% 29.85 in 10.0 mi West 12.7 mph - N/A   Partly Cloudy
2:53 PM 98.1 °F - 52.0 °F 21% 29.83 in 10.0 mi WSW 13.8 mph - N/A   Partly Cloudy
3:53 PM 95.0 °F 92.7 °F 54.0 °F 25% 29.81 in 10.0 mi West 16.1 mph - N/A   Partly Cloudy
4:53 PM 93.9 °F 91.7 °F 54.0 °F 26% 29.80 in 10.0 mi West 15.0 mph - N/A   Partly Cloudy
5:53 PM 89.1 °F 87.1 °F 55.0 °F 31% 29.80 in 10.0 mi WSW 15.0 mph - N/A   Partly Cloudy
6:53 PM 84.0 °F 83.0 °F 55.9 °F 38% 29.80 in 10.0 mi WSW 12.7 mph - N/A   Partly Cloudy
7:53 PM 78.1 °F - 57.9 °F 50% 29.82 in 10.0 mi West 10.4 mph - N/A   Clear
8:53 PM 75.0 °F - 55.0 °F 50% 29.85 in 10.0 mi West 8.1 mph - N/A   Clear
9:53 PM 72.0 °F - 55.0 °F 55% 29.86 in 10.0 mi Calm Calm - N/A   Clear
10:53 PM 69.1 °F - 55.9 °F 63% 29.86 in 10.0 mi WSW 3.5 mph - N/A   Clear
11:53 PM 69.1 °F - 57.0 °F 65% 29.86 in 9.0 mi Calm Calm - N/A   Clear